sat.trackr.live / text

‹ back to catalog

HULIANWANG DIGUI-101

NORAD 66417 · 2025-258F

PAYLOAD ACTIVE UNKNOWN

§ Identity

Operator
Country
PRC
Launch date
2025-11-10
Launch site
WSC
Launch vehicle
Mass (kg)
RCS (m²)

External: N2YO · Heavens-Above · Gunter

§ Orbital elements

Epoch: 2026-09-20T09:22:56.221536Z

Period
108.33 min
Inclination
50.0012°
Eccentricity
0.0000128
Mean motion
13.29328258 rev/d
Perigee alt
1,149.2 km
Apogee alt
1,149.4 km
Semi-major
7,527.4 km
B*
8.2421e-5
RAAN
314.1466°
Arg perigee
230.5889°
Mean anomaly
129.4972°
Rev number
4,240

§ Raw data

HULIANWANG DIGUI-1011 66417U 25258F   26263.39092849 -.00000086  00000+0  82421-4 0  99942 66417  50.0012 314.1466 0000128 230.5889 129.4972 13.29328258 42402

JSON: /api/v1/satellites/66417 · /tle

For live sub-satellite position, see the globe view (requires WebGL).

§ Visibility from observer

Set your observer location to see the next 7 days of passes ≥ 10°. The values pass through the URL so the page stays shareable.

No JS? Fill the form by hand. The geolocation button needs JavaScript.